Denton, TX

5:22 PM CST on February 25, 2017 (GMT -0600)
Denton Municipal

Weather History for KDTO - May, 2013

Change the Weather History Date:

Thursday, May 2, 2013

  Actual Average Record
Temperature  
Mean Temperature 53 °F -  
Max Temperature 66 °F 78 °F 90 °F (1998)
Min Temperature 41 °F 56 °F 41 °F (2004)
Degree Days  
Heating Degree Days 12    
Growing Degree Days 3 (Base 50)    
Moisture  
Dew Point 42 °F    
Average Humidity 78    
Maximum Humidity 89    
Minimum Humidity 68    
Precipitation  
Precipitation 0.07 in - - ()
Sea Level Pressure  
Sea Level Pressure 30.24 in    
Wind  
Wind Speed 14 mph (NNW)    
Max Wind Speed 24 mph    
Max Gust Speed 37 mph    
Visibility 10 miles    
Events Rain    
Averages and records for this station are not official NWS values.
T = Trace of Precipitation, MM = Missing Value Source: NWS Daily Summary

Daily Weather History Graph

Daily Weather History Graph

Search for Another Location

Airport or City:

Trip Planner

Search our weather history database for the weather conditions in past years. The results will help you decide how hot, cold, wet, or windy it might be!

Date:

Astronomy

May. 02, 2013 Rise Set
Actual Time 6:39 AM CDT 8:12 PM CDT
Civil Twilight 6:13 AM CDT 8:38 PM CDT
Nautical Twilight 5:41 AM CDT 9:10 PM CDT
Astronomical Twilight 5:08 AM CDT 9:43 PM CDT
Moon 2:05 AM CDT (5/2) 1:24 PM CDT (5/2)
Length of Visible Light 14h 25m
Length of Day
13h 32m
Waning Gibbous, 47% of the Moon is Illuminated
May 2
Waning Gibbous
May 9
New
May 17
First Quarter
May 24
Full
May 31
Last Quarter

Hourly Weather History & Observations

Time (CDT) Temp. Windchill Dew Point Humidity Pressure Visibility Wind Dir Wind Speed Gust Speed Precip Events Conditions
12:53 AM 64.9 °F - 60.1 °F 84% 30.01 in 10.0 mi NE 6.9 mph - N/A   Clear
1:37 AM 64.4 °F - 60.8 °F 88% 30.06 in 10.0 mi North 6.9 mph - N/A   Mostly Cloudy
1:53 AM 64.9 °F - 60.1 °F 84% 30.04 in 10.0 mi North 5.8 mph - N/A   Overcast
2:53 AM 61.0 °F - 53.1 °F 75% 30.04 in 10.0 mi NNW 13.8 mph 21.9 mph N/A   Overcast
3:53 AM 55.9 °F - 48.0 °F 75% 30.05 in 10.0 mi NNW 13.8 mph 23.0 mph N/A   Overcast
4:53 AM 52.0 °F - 45.0 °F 77% 30.09 in 10.0 mi NNW 13.8 mph 21.9 mph 0.00 in Rain Light Rain
5:53 AM 48.9 °F - 44.1 °F 83% 30.13 in 9.0 mi NNW 18.4 mph 26.5 mph 0.00 in Rain Light Rain
6:53 AM 46.9 °F - 43.0 °F 86% 30.17 in 10.0 mi NNW 13.8 mph 25.3 mph 0.00 in Rain Light Rain
7:53 AM 46.0 °F 38.3 °F 42.1 °F 86% 30.20 in 10.0 mi NNW 20.7 mph 26.5 mph 0.01 in   Overcast
8:53 AM 46.9 °F - 41.0 °F 80% 30.22 in 10.0 mi North 21.9 mph 26.5 mph N/A   Overcast
9:53 AM 46.9 °F - 39.0 °F 74% 30.23 in 10.0 mi North 23.0 mph 29.9 mph N/A   Overcast
10:53 AM 48.0 °F - 39.0 °F 71% 30.25 in 10.0 mi NNW 20.7 mph 29.9 mph N/A   Overcast
11:53 AM 48.9 °F - 39.9 °F 71% 30.27 in 10.0 mi NNW 16.1 mph 27.6 mph N/A   Overcast
12:53 PM 48.0 °F - 37.9 °F 68% 30.28 in 10.0 mi NNW 17.3 mph 29.9 mph N/A   Overcast
1:53 PM 46.0 °F 37.6 °F 37.9 °F 73% 30.30 in 10.0 mi NNW 24.2 mph 32.2 mph N/A   Overcast
2:53 PM 46.0 °F 38.3 °F 37.0 °F 71% 30.31 in 10.0 mi NNW 20.7 mph 33.4 mph N/A   Overcast
3:53 PM 43.0 °F 34.8 °F 39.9 °F 89% 30.31 in 8.0 mi North 18.4 mph 34.5 mph 0.06 in Rain Light Rain
4:12 PM 44.6 °F 37.2 °F 39.2 °F 81% 30.32 in 10.0 mi NNW 17.3 mph 28.8 mph 0.00 in   Overcast
4:53 PM 43.0 °F 34.0 °F 39.0 °F 86% 30.32 in 10.0 mi NNW 21.9 mph 31.1 mph 0.00 in   Overcast
5:53 PM 42.1 °F 32.6 °F 37.0 °F 82% 30.33 in 10.0 mi NNW 23.0 mph 36.8 mph 0.00 in   Overcast
6:53 PM 42.1 °F 33.9 °F 37.0 °F 82% 30.34 in 10.0 mi North 17.3 mph 32.2 mph N/A   Overcast
7:53 PM 43.0 °F 34.8 °F 36.0 °F 76% 30.35 in 10.0 mi North 18.4 mph 29.9 mph N/A   Overcast
8:42 PM 44.6 °F 36.9 °F 35.6 °F 71% 30.35 in 10.0 mi North 18.4 mph 33.4 mph N/A   Overcast
8:53 PM 44.1 °F 35.9 °F 35.1 °F 71% 30.35 in 10.0 mi North 19.6 mph 31.1 mph N/A   Overcast
9:53 PM 43.0 °F 37.2 °F 36.0 °F 76% 30.37 in 10.0 mi North 10.4 mph - N/A   Mostly Cloudy
10:53 PM 44.1 °F 36.5 °F 34.0 °F 68% 30.36 in 10.0 mi North 17.3 mph 25.3 mph N/A   Mostly Cloudy
11:53 PM 41.0 °F 34.7 °F 34.0 °F 76% 30.36 in 10.0 mi NNW 10.4 mph - N/A   Clear